Location: ?????????
(54.7630°N, 39.4991°E)
Time: 01:16:39
(UTC+00:00)

Cosmos 1346 Rocket - Pass Details

Date: 14 April 2026
Orbit: 472 x 484 km, 81.2° (Epoch: 20 May)

Event Time Altitude Azimuth Distance (km) Brightness Sun altitude
Rises 18:32:49 0° 346° (NNW) 2,544 7.3 -16.5°
Reaches altitude 10° 18:34:56 10° 347° (NNW) 1,658 6.2 -16.7°
Maximum altitude 18:38:34 87° 73° (ENE) 483 2.4 -17.1°
Enters shadow 18:39:45 41° 164° (SSE) 707 2.9 -17.2°
